Simultaneous Nadir Overpasses (SNOs) Predictions

Prediction of SNOs between GOES-15 and METOP-B Satellite Orbit:

Table of predicted SNOs for the next 14.0 days since TLE Epoch: 4/27/2024
Index Date Time (GOES-15) GOES-15 Lat,Lon METOP-B Lat,Lon Distance(km) Time Diff (sec)
1 04/29/2024 05:17:24 -0.15, 61.42 -0.21, 61.82 44.94 80
2 04/30/2024 17:36:23 0.16, 61.42 -0.80, 57.22 479.27 80
3 05/01/2024 17:15:42 0.16, 61.43 0.34, 62.20 87.77 80
4 05/03/2024 05:31:52 -0.16, 61.49 0.66, 57.64 438.56 80
5 05/04/2024 05:13:50 -0.16, 61.51 -0.43, 62.64 128.61 80
6 05/05/2024 17:32:47 0.16, 61.51 -0.62, 58.05 395.47 80
7 05/06/2024 17:09:26 0.16, 61.53 0.48, 63.04 171.48 80
8 05/08/2024 05:30:54 -0.16, 61.60 0.55, 58.49 355.34 80
9 05/09/2024 05:10:13 -0.17, 61.63 -0.56, 63.48 211.26 80
10 05/10/2024 17:29:10 0.17, 61.64 -0.46, 58.89 313.69 80
